Weather History for CYMX - November, 2013

Change the Weather History Date:

Wednesday, November 6, 2013

  Actual Average Record
Temperature  
Mean Temperature 44 °F -  
Max Temperature 55 °F 41 °F 64 °F (2008)
Min Temperature 33 °F 28 °F 21 °F (2011)
Degree Days  
Heating Degree Days 21    
Moisture  
Dew Point 37 °F    
Average Humidity 74    
Maximum Humidity 94    
Minimum Humidity 51    
Precipitation  
Precipitation 0.00 in - - ()
Sea Level Pressure  
Sea Level Pressure 30.09 in    
Wind  
Wind Speed 3 mph ()    
Max Wind Speed 10 mph    
Max Gust Speed -    
Visibility 16.0 miles    
Events Rain    
Averages and records for this station are not official NWS values.
T = Trace of Precipitation, MM = Missing Value Source: Averaged Metar Reports

Daily Weather History Graph

Daily Weather History Graph

Search for Another Location

Airport or City:

Trip Planner

Search our weather history database for the weather conditions in past years. The results will help you decide how hot, cold, wet, or windy it might be!

Date:

Astronomy

Nov. 06, 2013 Rise Set
Actual Time 6:43 AM EST 4:35 PM EST
Civil Twilight 6:11 AM EST 5:07 PM EST
Nautical Twilight 5:36 AM EST 5:42 PM EST
Astronomical Twilight 5:01 AM EST 6:17 PM EST
Moon 10:00 AM EST (11/6) 7:33 PM EST (11/6)
Length of Visible Light 10h 55m
Length of Day
9h 52m
Waxing Crescent, 13% of the Moon is Illuminated
Nov 6
Waxing Crescent
Nov 10
First Quarter
Nov 17
Full
Nov 25
Last Quarter
Dec 2
New

Hourly Weather History & Observations

Time (EST) Temp. Windchill Dew Point Humidity Pressure Visibility Wind Dir Wind Speed Gust Speed Precip Events Conditions
12:00 AM 37.4 °F - 30.2 °F 75% 30.38 in 25.0 mi North 2.3 mph - N/A   Overcast
1:00 AM 37.4 °F - 30.2 °F 75% 30.37 in 25.0 mi Calm Calm - N/A   Overcast
2:00 AM 37.4 °F - 28.4 °F 70% 30.36 in 25.0 mi ENE 2.3 mph - N/A   Overcast
3:00 AM 35.6 °F - 30.2 °F 81% 30.34 in 25.0 mi Calm Calm - N/A   Mostly Cloudy
4:00 AM 33.8 °F - 28.4 °F 81% 30.33 in 25.0 mi Calm Calm - N/A   Mostly Cloudy
5:00 AM 33.8 °F - 30.2 °F 87% 30.32 in 25.0 mi Calm Calm - N/A   Mostly Cloudy
6:00 AM 35.6 °F - 30.2 °F 81% 30.30 in 25.0 mi Calm Calm - N/A   Mostly Cloudy
7:00 AM 35.6 °F 31.7 °F 32.0 °F 87% 30.27 in 45.0 mi ENE 4.6 mph - N/A   Mostly Cloudy
8:00 AM 37.4 °F 33.8 °F 32.0 °F 81% 30.26 in 30.0 mi NNE 4.6 mph - N/A   Mostly Cloudy
9:00 AM 41.0 °F 39.0 °F 33.8 °F 76% 30.23 in 30.0 mi NE 3.5 mph - N/A   Overcast
10:00 AM 46.4 °F 44.3 °F 35.6 °F 66% 30.20 in 30.0 mi East 4.6 mph - N/A   Mostly Cloudy
11:00 AM 51.8 °F - 37.4 °F 58% 30.16 in 30.0 mi Variable 2.3 mph - N/A   Mostly Cloudy
12:00 PM 53.6 °F - 35.6 °F 51% 30.12 in 30.0 mi SSE 5.8 mph - N/A   Mostly Cloudy
1:00 PM 55.4 °F - 39.2 °F 54% 30.06 in 30.0 mi SSE 8.1 mph - N/A   Mostly Cloudy
2:00 PM 53.6 °F - 37.4 °F 54% 30.04 in 25.0 mi SSE 9.2 mph - N/A   Overcast
3:00 PM 53.6 °F - 39.2 °F 58% 30.01 in 20.0 mi SSE 8.1 mph - N/A   Overcast
4:00 PM 51.8 °F - 39.2 °F 62% 29.98 in 25.0 mi SSE 4.6 mph - N/A   Overcast
4:11 PM 51.8 °F - 39.2 °F 62% 29.98 in 15.0 mi South 4.6 mph - N/A Rain Light Rain
5:00 PM 50.0 °F - 42.8 °F 76% 29.92 in 25.0 mi SE 6.9 mph - N/A   Overcast
6:00 PM 50.0 °F - 42.8 °F 76% 29.90 in 25.0 mi SSE 6.9 mph - N/A   Overcast
7:00 PM 50.0 °F - 42.8 °F 76% 29.85 in 25.0 mi SSE 3.5 mph - N/A   Overcast
7:47 PM 51.8 °F - 42.8 °F 71% 29.82 in 25.0 mi South 3.5 mph - N/A Rain Light Rain
8:00 PM 50.0 °F - 44.6 °F 82% 29.81 in 25.0 mi South 3.5 mph - N/A Rain Light Rain
9:00 PM 48.2 °F - 46.4 °F 93% 29.79 in 15.0 mi SE 3.5 mph - N/A Rain Light Rain
10:00 PM 50.0 °F - 46.4 °F 87% 29.74 in 15.0 mi SSE 9.2 mph - N/A Rain Light Rain
11:00 PM 50.0 °F - 48.2 °F 94% 29.72 in 15.0 mi South 10.4 mph - N/A Rain Light Rain